Regional Weather Roundup
Issued by NWS Upton, NY

Current Version | Previous Version | Text Only | Print | Product List | Glossary Off
Versions: 1 2 3 4 5 6 7 8 9 10 11 12 13 14 15 16 17 18 19 20 21 22 23 24 25 26 27 28 29 30 31 32 33 34 35 36 37 38 39 40 41 42 43 44 45 46 47 48 49 50
613 ASUS41 KOKX 061204 RWROKX REGIONAL WEATHER ROUNDUP NATIONAL WEATHER SERVICE NEW YORK NY 700 AM EST SAT FEB 06 2016 NOTE: "FAIR" INDICATES FEW OR NO CLOUDS BELOW 12,000 FEET WITH NO SIGNIFICANT WEATHER AND/OR OBSTRUCTIONS TO VISIBILITY. NYZ071-072-176-178-NJZ106-104-061300- NEW YORK CITY METRO AREA CITY SKY/WX TMP DP RH WIND PRES REMARKS CENTRAL PARK CLEAR 31 17 56 VRB3 30.43R LAGUARDIA APRT PTCLDY 32 18 56 W3 30.41R KENNEDY INTL PTCLDY 25 17 72 SW5 30.43R WCI 19 NEWARK/LIBERTY MOCLDY 27 18 69 SW5 30.42R WCI 22 BRNX BOT. GARD N/A 32 18 55 W2 30.42R TETERBORO CLEAR 25 18 74 CALM 30.40R $$ NYZ177-179-078>081-061300- LONG ISLAND NEW YORK CITY SKY/WX TMP DP RH WIND PRES REMARKS FARMINGDALE CLOUDY 17 14 88 NW3 30.41R ISLIP CLOUDY 15 12 88 CALM 30.39R SHIRLEY CLOUDY 15 12 88 CALM 30.41R RIVERHEAD N/A 25 16 68 CALM 30.43R WESTHAMPTON N/A N/A N/A N/A MISG 30.42R EAST HAMPTON FAIR 18 17 97 CALM 30.40R MONTAUK POINT N/A 31 18 58 NW7 30.40R WCI 24 $$ NYZ052-065-067-061300- HUDSON VALLEY CITY SKY/WX TMP DP RH WIND PRES REMARKS WHITE PLAINS PTCLDY 22 15 75 CALM 30.37R NEWBURGH NOT AVBL MONTGOMERY CLOUDY 21 17 84 SW5 30.37R WCI 15 POUGHKEEPSIE CLEAR 20 14 77 CALM 30.38R ALBANY MOCLDY 22 14 71 S6 30.34R WCI 14 $$ NJZ001-105-106-008-010-013-015-019>022-104-061300- NEW JERSEY CITY SKY/WX TMP DP RH WIND PRES REMARKS NEWARK/LIBERTY MOCLDY 27 18 69 SW5 30.42R WCI 22 TETERBORO CLEAR 25 18 74 CALM 30.40R CALDWELL CLOUDY 22 18 85 CALM 30.42R MORRISTOWN PTCLDY 21 19 93 CALM 30.42R SOMERVILLE PTCLDY 19 15 84 NW3 30.41R SUSSEX PTCLDY 18 15 88 CALM 30.38R ANDOVER N/A 20 17 88 SW3 30.39R TRENTON CLOUDY 22 18 85 CALM 30.41R MILLVILLE PTCLDY 22 20 92 CALM 30.44R ATLANTIC CITY CLOUDY 21 18 88 NW3 30.43S WRIGHTSTOWN CLOUDY 20 20 100 S2 30.40R TOMS RIVER PTCLDY 16 12 86 CALM 30.43S BELMAR PTCLDY 23 12 63 W3 30.41S $$ PAZ047>061-062-071-061300- EASTERN PENNSYLVANIA CITY SKY/WX TMP DP RH WIND PRES REMARKS PHILADELPHIA CLOUDY 29 22 75 SW5 30.44R WCI 24 ALLENTOWN PTCLDY 21 16 81 CALM 30.40R SCRANTON CLOUDY 23 16 74 CALM 30.34R $$ CTZ002-004>006-009-010-012-RIZ004-006-007-MAZ004-011-015-061300- SOUTHERN NEW ENGLAND IN CT CITY SKY/WX TMP DP RH WIND PRES REMARKS BRADLEY INTL CLOUDY 15 12 88 CALM 30.36R HARTFORD CLOUDY 17 13 84 S3 30.39R DANBURY CLOUDY 14 10 84 CALM 30.39R WTRBRY/OXFORD CLEAR 19 7 58 CALM 30.36R BRIDGEPORT PTCLDY 20 16 84 CALM 30.40R MERIDEN CLOUDY 12 7 80 CALM 30.40R NEW HAVEN PTCLDY 17 14 88 N3 30.40R CHESTER FAIR 25 19 80 CALM 30.37R GROTON CLOUDY 18 17 96 NE3 30.40R WILLIMANTIC CLOUDY 11 7 84 CALM 30.39R IN RI CITY SKY/WX TMP DP RH WIND PRES REMARKS PROVIDENCE CLOUDY 18 15 88 W7 30.39R WCI 9 BLOCK ISLAND CLEAR 25 18 74 CALM 30.38R WESTERLY CLOUDY 18 15 88 CALM 30.40R IN MA CITY SKY/WX TMP DP RH WIND PRES REMARKS BOSTON CLOUDY 26 16 65 W9 30.36 WCI 17 WORCESTER N/A 21 11 65 MISG 30.30R WESTFIELD CLOUDY 12 8 84 CALM 30.35S PROVINCETOWN CLEAR 27 20 75 NW12 30.35R WCI 17 NANTUCKET CLEAR 28 20 71 NW7 30.36R WCI 21 $$ ANZ330-335-338-340-345-350-353-355-061300- COASTAL MARINE OBSERVATIONS STATION/POSITION TIME SKY/WX TEMP WIND PRES VSBY WAVE AIR SEA DIR/SP/G HT/PER (UTC) (F) (DEG/KT/KT) (MB) (MI) (FT/S) NY HARB ENTRANCE 1050 35 43 320/ 6/ 8 1029.1 2/11 4S FIRE IS NOT AVBL 20S FIRE ISLAND 1050 35 45 360/ 4/ 8 1029.2 3/11 GREAT SOUTH BAY NOT AVBL 23SW MTP 1150 33 46 330/ 12/ 16 1029.0 3/10 HUDSON CANYON 1050 39 51 1028.8 5/ 6 KINGS POINT 1100 32 38 320/ 3/ 5 1028.9 EXECUTION ROCKS NOT AVBL CENTRAL LI SOUND 1100 33 310/ 8/ 12 N/A 1 EASTERN LI SOUND 1100 30 42 320/ 8/ 10 N/A ROBBINS REEF 1100 31 260/ 6/ 7 1028.7 $$ >>>>>>>>>>>>>>>>>>>>>>>>>>>> KEY <<<<<<<<<<<<<<<<<<<<<<<<<<< > < > SKY/WX - SKY CONDITION/PRESENT WEATHER < > TMP - TEMPERATURE IN FAHRENHEIT < > DP - DEWPOINT IN FAHRENHEIT < > RH - RELATIVE HUMIDITY IN PERCENT < > WIND - DIRECTION AND SPEED IN MPH < > PRES - MEAN SEA LEVEL PRESSURE IN INCHES OF HG < > WCI - WIND CHILL INDEX < > VSB - VISIBILITY IN MILES < > HX - HEAT INDEX < > TC - TEMPERATURE IN CELSIUS < > VRB - VARIABLE WIND DIRECTION < > < >>>>>>>>>>>>>>>>>>>>>>>>>>>> KEY <<<<<<<<<<<<<<<<<<<<<<<<<<<

USA.gov is the U.S. government's official web portal to all federal, state and local government web resources and services.